| time (UTC) | temp C | wind direction | speed KPH | gust KPH | rain 1hr cm | rain 24hr cm | rain mn cm | humidity % | barometer mb |
| 20260906234551 | 32 | 0 | 0.0 | 3.2 | 0.00 | 0.00 | 0.00 | 57 | 1012.3 |
| 20260906233058 | 33 | 0 | 0.0 | 4.8 | 0.00 | 0.00 | 0.00 | 56 | 1012.2 |
| 20260906231609 | 33 | 203 | 1.6 | 4.8 | 0.00 | 0.00 | 0.00 | 55 | 1012.3 |
| 20260906230057 | 33 | 0 | 0.0 | 3.2 | 0.00 | 0.00 | 0.00 | 54 | 1012.4 |
| 20260906224601 | 33 | 172 | 0.0 | 3.2 | 0.00 | 0.00 | 0.00 | 53 | 1012.4 |
| 20260906223100 | 33 | 187 | 0.0 | 4.8 | 0.00 | 0.00 | 0.00 | 52 | 1012.5 |
| 20260906221648 | 35 | 167 | 0.0 | 1.6 | 0.00 | 0.00 | 0.00 | 48 | 1012.6 |
| 20260906220056 | 36 | 0 | 0.0 | 3.2 | 0.00 | 0.00 | 0.00 | 47 | 1012.7 |
| 20260906214605 | 36 | 129 | 0.0 | 3.2 | 0.00 | 0.00 | 0.00 | 47 | 1012.6 |
| 20260906213106 | 36 | 136 | 0.0 | 1.6 | 0.00 | 0.00 | 0.00 | 47 | 1012.9 |
| 20260906211600 | 36 | 155 | 0.0 | 4.8 | 0.00 | 0.00 | 0.00 | 45 | 1013.0 |
| 20260906210115 | 38 | 144 | 1.6 | 4.8 | 0.00 | 0.00 | 0.00 | 43 | 1013.2 |
| 20260906204615 | 38 | 220 | 1.6 | 6.4 | 0.00 | 0.00 | 0.00 | 43 | 1013.4 |
| 20260906203101 | 38 | 174 | 0.0 | 4.8 | 0.00 | 0.00 | 0.00 | 45 | 1013.6 |
| 20260906201557 | 37 | 231 | 1.6 | 4.8 | 0.00 | 0.00 | 0.00 | 45 | 1013.7 |
| 20260906200056 | 36 | 210 | 1.6 | 6.4 | 0.00 | 0.00 | 0.00 | 48 | 1013.9 |
| 20260906194551 | 33 | 24 | 3.2 | 6.4 | 0.00 | 0.00 | 0.00 | 54 | 1014.0 |
| 20260906193059 | 34 | 226 | 0.0 | 3.2 | 0.00 | 0.00 | 0.00 | 51 | 1014.2 |
| 20260906191558 | 35 | 0 | 0.0 | 4.8 | 0.00 | 0.00 | 0.00 | 52 | 1014.2 |
| 20260906190058 | 35 | 23 | 0.0 | 3.2 | 0.00 | 0.00 | 0.00 | 52 | 1014.6 |
| 20260906184610 | 33 | 0 | 0.0 | 6.4 | 0.00 | 0.00 | 0.00 | 52 | 1014.6 |
| 20260906183103 | 33 | 0 | 0.0 | 3.2 | 0.00 | 0.00 | 0.00 | 53 | 1014.9 |
| 20260906181601 | 33 | 132 | 0.0 | 4.8 | 0.00 | 0.00 | 0.00 | 56 | 1014.9 |
| 20260906180055 | 33 | 137 | 0.0 | 3.2 | 0.00 | 0.00 | 0.00 | 54 | 1015.4 |
| 20260906174717 | 32 | 0 | 1.6 | 4.8 | 0.00 | 0.00 | 0.00 | 57 | 1015.6 |
| 20260906173106 | 32 | 0 | 0.0 | 1.6 | 0.00 | 0.00 | 0.00 | 60 | 1015.9 |
| 20260906171559 | 30 | 0 | 0.0 | 1.6 | 0.00 | 0.00 | 0.00 | 65 | 1016.4 |
| 20260906170106 | 30 | 158 | 0.0 | 3.2 | 0.00 | 0.00 | 0.00 | 67 | 1016.5 |
| 20260906164555 | 30 | 148 | 0.0 | 4.8 | 0.00 | 0.00 | 0.00 | 68 | 1016.7 |
| 20260906163101 | 30 | 0 | 0.0 | 3.2 | 0.00 | 0.00 | 0.00 | 68 | 1016.6 |
| 20260906161554 | 30 | 142 | 0.0 | 1.6 | 0.00 | 0.00 | 0.00 | 67 | 1016.6 |
| 20260906160110 | 30 | 0 | 0.0 | 0.0 | 0.00 | 0.00 | 0.00 | 66 | 1016.5 |
| 20260906154603 | 30 | 0 | 0.0 | 1.6 | 0.00 | 0.00 | 0.00 | 67 | 1016.3 |
| 20260906153100 | 30 | 137 | 0.0 | 3.2 | 0.00 | 0.00 | 0.00 | 68 | 1016.1 |
| 20260906151603 | 29 | 0 | 0.0 | 1.6 | 0.00 | 0.00 | 0.00 | 70 | 1015.9 |
| 20260906150052 | 28 | 158 | 0.0 | 0.0 | 0.00 | 0.00 | 0.00 | 72 | 1015.9 |
| 20260906144621 | 28 | 0 | 0.0 | 0.0 | 0.00 | 0.00 | 0.00 | 73 | 1015.8 |
| 20260906143113 | 27 | 0 | 0.0 | 0.0 | 0.00 | 0.00 | 0.00 | 76 | 1015.6 |
| 20260906141557 | 27 | 0 | 0.0 | 0.0 | 0.00 | 0.00 | 0.00 | 78 | 1015.7 |
| 20260906140054 | 26 | 0 | 0.0 | 0.0 | 0.00 | 0.00 | 0.00 | 79 | 1015.7 |
| 20260906134600 | 26 | 0 | 0.0 | 0.0 | 0.00 | 0.00 | 0.00 | 79 | 1015.5 |
| 20260906133105 | 26 | 0 | 0.0 | 1.6 | 0.00 | 0.00 | 0.00 | 80 | 1015.4 |
| 20260906131600 | 26 | 0 | 0.0 | 0.0 | 0.00 | 0.00 | 0.00 | 80 | 1015.2 |
| 20260906130054 | 25 | 0 | 0.0 | 0.0 | 0.00 | 0.00 | 0.00 | 81 | 1015.1 |
| 20260906124604 | 25 | 0 | 0.0 | 0.0 | 0.00 | 0.00 | 0.00 | 81 | 1015.0 |
| 20260906123103 | 25 | 0 | 0.0 | 0.0 | 0.00 | 0.00 | 0.00 | 81 | 1014.5 |
| 20260906121555 | 24 | 0 | 0.0 | 0.0 | 0.00 | 0.00 | 0.00 | 81 | 1014.4 |
| 20260906120052 | 25 | 0 | 0.0 | 0.0 | 0.00 | 0.00 | 0.00 | 81 | 1014.1 |
| 20260906114551 | 25 | 0 | 0.0 | 0.0 | 0.00 | 0.00 | 0.00 | 81 | 1013.8 |
| 20260906113058 | 24 | 0 | 0.0 | 0.0 | 0.00 | 0.00 | 0.00 | 82 | 1013.6 |
| 20260906111555 | 24 | 0 | 0.0 | 0.0 | 0.00 | 0.00 | 0.00 | 81 | 1013.6 |
| 20260906110053 | 25 | 0 | 0.0 | 0.0 | 0.00 | 0.00 | 0.00 | 80 | 1013.5 |
| 20260906104559 | 25 | 0 | 0.0 | 0.0 | 0.00 | 0.00 | 0.00 | 79 | 1013.6 |
| 20260906103059 | 25 | 0 | 0.0 | 0.0 | 0.00 | 0.00 | 0.00 | 79 | 1013.5 |
| 20260906101554 | 25 | 0 | 0.0 | 0.0 | 0.00 | 0.00 | 0.00 | 79 | 1013.3 |
| 20260906100105 | 25 | 0 | 0.0 | 0.0 | 0.00 | 0.00 | 0.00 | 77 | 1013.2 |
| 20260906094557 | 26 | 0 | 0.0 | 0.0 | 0.00 | 0.00 | 0.00 | 77 | 1013.2 |
| 20260906093115 | 26 | 0 | 0.0 | 1.6 | 0.00 | 0.00 | 0.00 | 76 | 1013.2 |
| 20260906091557 | 26 | 236 | 0.0 | 1.6 | 0.00 | 0.00 | 0.00 | 75 | 1013.2 |
| 20260906090133 | 26 | 0 | 0.0 | 1.6 | 0.00 | 0.00 | 0.00 | 75 | 1013.2 |
| 20260906084558 | 27 | 0 | 0.0 | 1.6 | 0.00 | 0.00 | 0.00 | 75 | 1013.2 |
| 20260906083056 | 27 | 0 | 0.0 | 1.6 | 0.00 | 0.00 | 0.00 | 74 | 1013.2 |
| 20260906081556 | 27 | 0 | 0.0 | 3.2 | 0.00 | 0.00 | 0.00 | 73 | 1013.1 |
| 20260906080054 | 27 | 0 | 0.0 | 3.2 | 0.00 | 0.00 | 0.00 | 73 | 1013.4 |
| 20260906074549 | 27 | 0 | 0.0 | 1.6 | 0.00 | 0.00 | 0.00 | 73 | 1013.6 |
| 20260906073057 | 27 | 171 | 0.0 | 6.4 | 0.00 | 0.00 | 0.00 | 73 | 1013.7 |
| 20260906071605 | 27 | 126 | 0.0 | 8.0 | 0.00 | 0.00 | 0.00 | 72 | 1013.9 |
| 20260906070054 | 27 | 135 | 0.0 | 1.6 | 0.00 | 0.00 | 0.00 | 72 | 1014.1 |
| 20260906064600 | 28 | 0 | 0.0 | 4.8 | 0.00 | 0.00 | 0.00 | 72 | 1014.2 |
| 20260906063101 | 28 | 0 | 0.0 | 6.4 | 0.00 | 0.00 | 0.00 | 72 | 1014.3 |
| 20260906061556 | 27 | 146 | 0.0 | 3.2 | 0.00 | 0.00 | 0.00 | 72 | 1014.1 |
| 20260906060109 | 27 | 0 | 0.0 | 0.0 | 0.00 | 0.00 | 0.00 | 72 | 1014.4 |
| 20260906054554 | 27 | 0 | 0.0 | 0.0 | 0.00 | 0.00 | 0.00 | 72 | 1014.4 |
| 20260906053058 | 27 | 0 | 0.0 | 1.6 | 0.00 | 0.00 | 0.00 | 71 | 1014.3 |
| 20260906051556 | 27 | 0 | 0.0 | 0.0 | 0.00 | 0.00 | 0.00 | 71 | 1014.3 |
| 20260906050114 | 27 | 0 | 0.0 | 1.6 | 0.00 | 0.00 | 0.00 | 70 | 1014.6 |
| 20260906044559 | 28 | 0 | 0.0 | 1.6 | 0.00 | 0.00 | 0.00 | 70 | 1014.6 |
| 20260906043107 | 28 | 0 | 0.0 | 1.6 | 0.00 | 0.00 | 0.00 | 69 | 1014.5 |
| 20260906041555 | 28 | 0 | 0.0 | 3.2 | 0.00 | 0.00 | 0.00 | 69 | 1014.3 |
| 20260906040053 | 28 | 155 | 0.0 | 4.8 | 0.00 | 0.00 | 0.00 | 68 | 1014.3 |
| 20260906034559 | 28 | 0 | 0.0 | 6.4 | 0.00 | 0.00 | 0.00 | 67 | 1014.3 |
| 20260906033058 | 29 | 0 | 0.0 | 3.2 | 0.00 | 0.00 | 0.00 | 65 | 1014.3 |
| 20260906031604 | 29 | 81 | 0.0 | 4.8 | 0.00 | 0.00 | 0.00 | 64 | 1014.2 |
| 20260906030132 | 30 | 0 | 0.0 | 9.7 | 0.00 | 0.00 | 0.00 | 63 | 1014.0 |
| 20260906024557 | 30 | 98 | 0.0 | 4.8 | 0.00 | 0.00 | 0.00 | 62 | 1013.6 |
| 20260906023058 | 30 | 35 | 0.0 | 6.4 | 0.00 | 0.00 | 0.00 | 60 | 1013.4 |
| 20260906021610 | 31 | 61 | 1.6 | 6.4 | 0.00 | 0.00 | 0.00 | 59 | 1012.9 |
| 20260906020100 | 31 | 0 | 0.0 | 8.0 | 0.00 | 0.00 | 0.00 | 58 | 1012.7 |
| 20260906014552 | 31 | 0 | 1.6 | 6.4 | 0.00 | 0.00 | 0.00 | 57 | 1012.4 |
| 20260906013100 | 32 | 143 | 1.6 | 9.7 | 0.00 | 0.00 | 0.00 | 56 | 1012.3 |
| 20260906011605 | 32 | 0 | 1.6 | 6.4 | 0.00 | 0.00 | 0.00 | 56 | 1012.1 |
| 20260906010100 | 32 | 154 | 0.0 | 12.9 | 0.00 | 0.00 | 0.00 | 55 | 1012.0 |
| 20260906004556 | 33 | 89 | 3.2 | 14.5 | 0.00 | 0.00 | 0.00 | 53 | 1012.0 |
| 20260906003108 | 33 | 324 | 1.6 | 9.7 | 0.00 | 0.00 | 0.00 | 52 | 1012.0 |
| 20260906001559 | 34 | 0 | 1.6 | 8.0 | 0.00 | 0.00 | 0.00 | 49 | 1011.8 |
| 20260906000057 | 35 | 126 | 0.0 | 4.8 | 0.00 | 0.00 | 0.00 | 45 | 1011.8 |